Location: Edinburgh
(55.9500°N, 3.1600°W)
Time: 11:12:11
(UTC+01:00)

M-CUBED/EXP-1 PRIME - Visible Passes

Search period start: 24 April 2019 00:00
Search period end: 04 May 2019 00:00
Orbit: 430 x 671 km, 101.7° (Epoch: 23 April)

Date Brightness Start Highest point End Pass type
(mag) Time Alt. Az. Time Alt. Az. Time Alt. Az.
24 Apr ? 00:40:51 10° N 00:43:49 18° NW 00:46:40 10° W visible
24 Apr ? 21:28:23 10° NE 21:31:07 16° E 21:33:44 10° SE visible
24 Apr ? 23:01:38 10° NNE 23:06:03 85° WNW 23:09:33 14° SSW visible
25 Apr ? 00:36:36 10° N 00:39:44 19° NW 00:42:43 10° W visible
25 Apr ? 21:24:31 10° ENE 21:26:51 14° E 21:29:06 10° SE visible
25 Apr ? 22:57:29 10° NNE 23:01:53 86° ESE 23:05:14 15° SSW visible
26 Apr ? 00:32:23 10° N 00:35:38 21° NW 00:38:44 10° W visible
26 Apr ? 21:20:45 10° ENE 21:22:34 12° E 21:24:21 10° ESE visible
26 Apr ? 22:53:20 10° NNE 22:57:42 76° ESE 23:00:55 16° SSW visible
27 Apr ? 00:28:09 10° N 00:31:32 22° NW 00:34:44 10° W visible
27 Apr ? 22:49:12 10° NNE 22:53:31 67° ESE 22:56:36 16° S visible
28 Apr ? 00:23:56 10° N 00:27:25 24° NW 00:30:42 10° WSW visible
28 Apr ? 22:45:04 10° NNE 22:49:19 59° ESE 22:52:16 17° S visible
29 Apr ? 00:19:44 10° N 00:23:18 26° NW 00:26:40 10° WSW visible
29 Apr ? 22:40:57 10° NNE 22:45:06 51° ESE 22:47:57 17° S visible
30 Apr ? 00:15:31 10° N 00:19:11 28° NW 00:22:36 10° WSW visible
30 Apr ? 22:36:49 10° NNE 22:40:53 45° ESE 22:43:37 17° S visible
01 May ? 00:11:18 10° N 00:15:02 30° NW 00:18:31 10° WSW visible
01 May ? 22:32:43 10° NE 22:36:38 39° ESE 22:39:18 17° SSE visible
02 May ? 00:07:05 10° N 00:10:53 33° NW 00:14:25 10° WSW visible
02 May ? 22:28:37 10° NE 22:32:24 34° ESE 22:34:57 16° SSE visible
03 May ? 00:02:53 10° N 00:06:44 37° NW 00:10:18 10° WSW visible
03 May ? 01:39:44 10° NNW 01:39:56 10° NW 01:40:08 10° NW visible
03 May ? 22:24:31 10° NE 22:28:09 30° E 22:30:38 15° SSE visible
